870  
ASUS41 KALY 240510  
RWRALY  
 
NEW YORK STATE HOURLY WEATHER ROUNDUP  
NATIONAL WEATHER SERVICE ALBANY NY  
1200 AM EST WED JAN 24 2018  
 
NOTE: "FAIR" INDICATES FEW OR NO CLOUDS BELOW 12,000 FEET WITH NO  
SIGNIFICANT WEATHER AND/OR NO S TO VISIBILITY
.  
 
NYZ032-033-038>043-046>054-057>066-NYZ062>081-082-084-240600-  
EAST  
 
 
CITY SKY/WX TMP DP RH WIND PRES REMARKS
 
ALBANY CLOUDY 39 31 72 S3 29.63F  
GLENS FALLS MOCLDY 36 33 89 S9 29.58F WCI 29  
POUGHKEEPSIE FAIR 40 29 64 S5 29.69S  
NEWBURGH CLEAR 39 32 75 W9 29.69S WCI 33  
MONTGOMERY FAIR 39 29 67 S8 29.67F WCI 33  
WHITE PLAINS FAIR 41 27 57 VRB7 29.69S  
ISLIP FAIR 44 29 55 W10 29.71R  
NEW YORK CITY FAIR 45 27 49 W14G26 29.73S  
CENTRAL PARK FAIR 44 28 53 W10G20 29.75S  

 
 
NYZ005>009-017-018-044>046-055-056-240600-  
CENTRAL  
 
 
CITY SKY/WX TMP DP RH WIND PRES REMARKS
 
FULTON FLURRIES 33 28 81 W22G40 29.71R WCI 21  
SYRACUSE LGT SNOW 32 32 100 W21G31 29.70R FOG WCI 20  
ROME LGT RAIN 36 31 82 W21G33 29.65R WCI 25  
ELMIRA CLOUDY 38 29 70 W10 29.73R WCI 31  
BINGHAMTON CLOUDY 35 28 75 W14G22 29.66R WCI 26  
MONTICELLO MOCLDY 36 27 69 W13G22 29.66F WCI 27  

 
 
NYZ026>034-041>043-087-240600-  
NORTH  
 
 
CITY SKY/WX TMP DP RH WIND PRES REMARKS
 
WATERTOWN LGT SNOW 27 24 89 W25G33 29.67R FOG WCI 12  
FORT DRUM NOT AVBL  
OGDENSBURG CLOUDY 33 30 90 W14G25 29.55R WCI 23  
MASSENA CLOUDY 36 34 92 SW16 29.50R WCI 26  
SARANAC LAKE LGT SNOW 32 31 96 SW13G28 29.43F FOG WCI 22  
PLATTSBURGH MOCLDY 40 30 67 VRB6 29.48F  

 
 
NYZ001>004-010>016-019>021-085-240600-  
WEST  
 
 
CITY SKY/WX TMP DP RH WIND PRES REMARKS
 
NIAGARA FALLS CLOUDY 29 20 69 W18G26 29.82R WCI 16  
BUFFALO FLURRIES 28 21 75 W21G31 29.81R WCI 15  
DUNKIRK MIX PCPN 27 23 85 W17G28 29.88R WCI 14  
JAMESTOWN LGT SNOW 27 25 93 W16G25 29.81R FOG WCI 14  
WELLSVILLE CLOUDY 31 25 78 W26G39 29.72R WCI 17  
ROCHESTER FLURRIES 30 24 78 W23G35 29.77R WCI 17  
PENN YAN CLOUDY N/A N/A N/A W23G41 29.72R  

 
 
KEY  
WCI = WIND CHILL INDEX  
VSB = VISIBILITY  
HX = HEAT INDEX  

 
 
 
CLICK HERE TO GO TO PREVIOUS BULLETINS.

The Nexlab NY Page
The Nexlab VT Page
The Nexlab MA Page
The Nexlab CT Page Main Text Page